Zurück zum Katalog

ARIANE 44LP DEB

AktivHEO
NORAD 25540·DEBRIS·🇫🇷 France

Gestartet Dec 11, 1988 von Guiana Space Centre

Loading…

Nächste Überflüge (nächste 24 Stunden)

TLE

AktuellSource: Space-Track

Epoche: Sep 14, 2026, 08:12 UTC

1 25540U 88109G   26257.34204556  .00003165  00000-0  32969-2 0  9999
2 25540   6.6279 238.8567 6556412  45.2452 352.2840  3.16587185278069

Verfolge ARIANE 44LP DEB in Echtzeit mit AllMySat

Download on the App Store